Regional Weather Roundup
Issued by NWS

Home | Current Version | Previous Version | Graphics & Text | Print | Product List | Glossary On
Versions: 1 2 3 4 5 6 7 8 9 10 11 12 13 14 15 16 17 18 19 20 21 22 23 24 25 26 27 28 29 30 31 32 33 34 35 36 37 38 39 40 41 42 43 44 45 46 47 48 49 50
806
ASUS45 KCYS 260710
RWRWY

WYOMING REGIONAL WEATHER ROUNDUP
NATIONAL WEATHER SERVICE CHEYENNE WY
100 AM MDT MON SEP 26 2016

NOTE:  "FAIR" INDICATES FEW OR NO CLOUDS BELOW 12,000 FEET
WITH NO SIGNIFICANT WEATHER AND/OR OBSTRUCTIONS TO VISIBILITY.

WYZ001-260800-
YELLOWSTONE NATIONAL PARK

CITY           SKY/WX    TMP DP  RH WIND       PRES   REMARKS
LK YELLOWSTONE   N/A     31  30  96 NW3       30.58S
W YELLOWSTONE  NOT AVBL

$$
WYZ002>013-054>058-071-098>099-260800-
NORTHERN WYOMING

CITY           SKY/WX    TMP DP  RH WIND       PRES   REMARKS
JACKSON        FAIR      37  36  93 CALM      30.52R
CODY           FAIR      44  41  89 S5        30.41S
GREYBULL       FAIR      48  44  86 CALM      30.38R
WORLAND        FAIR      44  41  89 CALM      30.38R
SHERIDAN       FAIR      45  39  79 S5        30.33F
BUFFALO        FAIR      48  37  65 W8        30.38S
GILLETTE       FAIR      44  39  82 S3        30.35S
HULETT         FAIR      41  34  75 SW8       30.35S
NEWCASTLE      FAIR      39  34  81 CALM      30.38S

$$
WYZ014>020-022>026-101>103-260800-
CENTRAL WYOMING

CITY           SKY/WX    TMP DP  RH WIND       PRES   REMARKS
BIG PINEY      FAIR      45  35  68 N18       30.49F
PINEDALE       FAIR      43  34  70 NW12      30.48F
DUBOIS         FAIR      50  34  53 W15       30.49F
LANDER         FAIR      46  39  76 CALM      30.41F
RIVERTON       FAIR      46  41  82 W6        30.43R
CASPER         FAIR      45  38  76 W8        30.40S
DOUGLAS        FAIR      40  36  86 CALM      30.40F

$$
WYZ021-027>030-104>119-260800-
SOUTHERN WYOMING

CITY           SKY/WX    TMP DP  RH WIND       PRES   REMARKS
EVANSTON       FAIR      49  31  49 CALM      30.53F HAZE
FORT BRIDGER   FAIR      49  35  56 W9        30.54
ROCK SPRINGS   FAIR      45  36  70 SW9       30.49S
DIXON          FAIR      42  34  72 E7        30.54S
RAWLINS        FAIR      37  31  78 CALM      30.49S
SARATOGA       FAIR      36  32  87 CALM      30.52R
LARAMIE        FAIR      34  31  88 S6        30.49F WCI  29
CHEYENNE       FAIR      43  33  68 W9        30.46S
TORRINGTON     FAIR      38  36  92 NE8       30.38F WCI  32
PINE BLUFFS    FAIR      37  32  81 MISG      30.43S

$$




USA.gov is the U.S. government's official web portal to all federal, state and local government web resources and services.